Time,TemperatureF,DewpointF,PressureIn,WindDirection,WindDirectionDegrees,WindSpeedMPH,WindSpeedGustMPH,Humidity,HourlyPrecipIn,Conditions,Clouds,dailyrainin,SoftwareType,DateUTC
2013-10-04 01:29:00,45.0,44.0,29.98,SSW,196,0.0,-999.0,95,-99.99,,,-99.99,,2013-10-04 05:29:00,
2013-10-04 02:00:00,45.0,44.0,29.97,SSW,196,0.0,-999.0,96,-99.99,,,-99.99,,2013-10-04 06:00:00,
2013-10-04 02:20:00,44.0,43.0,29.98,SSW,196,0.0,-999.0,96,-99.99,,,-99.99,,2013-10-04 06:20:00,
2013-10-04 02:28:00,45.0,44.0,29.97,SSW,196,0.0,-999.0,97,-99.99,,,-99.99,,2013-10-04 06:28:00,
2013-10-04 02:59:00,44.0,43.0,29.97,SSW,196,0.0,-999.0,97,-99.99,,,-99.99,,2013-10-04 06:59:00,
2013-10-04 03:18:00,43.0,42.0,29.98,SSW,196,0.0,-999.0,97,-99.99,,,-99.99,,2013-10-04 07:18:00,
2013-10-04 03:28:00,44.0,43.0,29.97,SSW,196,0.0,-999.0,97,-99.99,,,-99.99,,2013-10-04 07:28:00,
2013-10-04 03:47:00,43.0,42.0,29.97,SSW,196,0.0,-999.0,97,-99.99,,,-99.99,,2013-10-04 07:47:00,
2013-10-04 03:59:00,43.0,42.0,29.97,SSW,196,0.0,-999.0,97,-99.99,,,-99.99,,2013-10-04 07:59:00,
2013-10-04 04:08:00,43.0,42.0,29.97,SSW,196,0.0,-999.0,97,-99.99,,,-99.99,,2013-10-04 08:08:00,
2013-10-04 04:18:00,43.0,42.0,29.97,SSW,196,0.0,-999.0,97,-99.99,,,-99.99,,2013-10-04 08:18:00,
2013-10-04 04:28:00,43.0,42.0,29.97,SSW,196,0.0,-999.0,97,-99.99,,,-99.99,,2013-10-04 08:28:00,
2013-10-04 04:49:00,43.0,42.0,29.98,SSW,196,0.0,-999.0,97,-99.99,,,-99.99,,2013-10-04 08:49:00,
2013-10-04 04:59:00,43.0,42.0,29.97,SSW,196,0.0,-999.0,98,-99.99,,,-99.99,,2013-10-04 08:59:00,
2013-10-04 05:18:00,43.0,42.0,29.98,SSW,196,0.0,-999.0,97,-99.99,,,-99.99,,2013-10-04 09:18:00,
2013-10-04 05:28:00,43.0,42.0,29.98,SSW,196,0.0,-999.0,97,-99.99,,,-99.99,,2013-10-04 09:28:00,
2013-10-04 05:49:00,42.0,41.0,29.98,SSW,196,0.0,-999.0,97,-99.99,,,-99.99,,2013-10-04 09:49:00,
2013-10-04 06:01:00,42.0,41.0,29.98,SSW,196,0.0,-999.0,98,-99.99,,,-99.99,,2013-10-04 10:01:00,
2013-10-04 06:21:00,42.0,41.0,29.99,SSW,196,0.0,-999.0,98,-99.99,,,-99.99,,2013-10-04 10:21:00,
2013-10-04 06:31:00,42.0,41.0,30.00,SSW,196,0.0,-999.0,98,-99.99,,,-99.99,,2013-10-04 10:31:00,
2013-10-04 06:39:00,42.0,41.0,30.00,SSW,196,0.0,-999.0,98,-99.99,,,-99.99,,2013-10-04 10:39:00,
2013-10-04 06:50:00,42.0,41.0,30.00,SSW,196,0.0,-999.0,98,-99.99,,,-99.99,,2013-10-04 10:50:00,
2013-10-04 07:01:00,43.0,42.0,29.99,SSW,196,0.0,-999.0,98,-99.99,,,-99.99,,2013-10-04 11:01:00,
2013-10-04 07:21:00,43.0,42.0,30.00,SSW,196,0.0,-999.0,98,-99.99,,,-99.99,,2013-10-04 11:21:00,
2013-10-04 07:30:00,43.0,42.0,30.00,SSW,196,0.0,-999.0,98,-99.99,,,-99.99,,2013-10-04 11:30:00,
2013-10-04 07:51:00,42.0,41.0,30.01,SSW,196,0.0,-999.0,98,-99.99,,,-99.99,,2013-10-04 11:51:00,
2013-10-04 08:01:00,44.0,43.0,30.00,SSW,196,0.0,-999.0,98,-99.99,,,-99.99,,2013-10-04 12:01:00,
2013-10-04 08:21:00,44.0,43.0,30.01,SSW,196,0.0,-999.0,98,-99.99,,,-99.99,,2013-10-04 12:21:00,
2013-10-04 08:30:00,44.0,44.0,30.01,SSW,196,0.0,-999.0,99,-99.99,,,-99.99,,2013-10-04 12:30:00,
2013-10-04 08:49:00,44.0,44.0,30.02,SSW,196,0.0,-999.0,99,-99.99,,,-99.99,,2013-10-04 12:49:00,
2013-10-04 09:01:00,45.0,45.0,30.01,SSW,196,0.0,-999.0,99,-99.99,,,-99.99,,2013-10-04 13:01:00,
2013-10-04 09:20:00,45.0,45.0,30.03,SSW,196,0.0,-999.0,99,-99.99,,,-99.99,,2013-10-04 13:20:00,
2013-10-04 09:30:00,45.0,45.0,30.02,SSW,196,0.0,-999.0,99,-99.99,,,-99.99,,2013-10-04 13:30:00,
2013-10-04 09:39:00,45.0,45.0,30.02,SSW,196,0.0,-999.0,99,-99.99,,,-99.99,,2013-10-04 13:39:00,
2013-10-04 09:49:00,45.0,45.0,30.02,SSW,196,0.0,-999.0,99,-99.99,,,-99.99,,2013-10-04 13:49:00,
2013-10-04 10:00:00,48.0,48.0,30.01,SSW,196,0.0,-999.0,99,-99.99,,,-99.99,,2013-10-04 14:00:00,
2013-10-04 10:21:00,47.0,47.0,30.02,South,185,0.0,-999.0,99,-99.99,,,-99.99,,2013-10-04 14:21:00,
2013-10-04 10:30:00,50.0,50.0,30.01,SE,135,0.0,-999.0,99,-99.99,,,-99.99,,2013-10-04 14:30:00,
2013-10-04 10:51:00,50.0,49.0,30.02,SE,135,0.0,-999.0,98,-99.99,,,-99.99,,2013-10-04 14:51:00,
2013-10-04 11:01:00,52.0,50.0,30.00,SE,135,0.0,-999.0,94,-99.99,,,-99.99,,2013-10-04 15:01:00,
2013-10-04 11:21:00,52.0,49.0,30.01,ESE,118,0.0,-999.0,91,-99.99,,,-99.99,,2013-10-04 15:21:00,
2013-10-04 11:30:00,53.0,50.0,29.99,ESE,118,0.0,-999.0,89,-99.99,,,-99.99,,2013-10-04 15:30:00,
2013-10-04 11:50:00,53.0,49.0,30.00,ESE,118,0.0,-999.0,86,-99.99,,,-99.99,,2013-10-04 15:50:00,
2013-10-04 12:02:00,54.0,50.0,29.99,ESE,118,0.0,-999.0,87,-99.99,,,-99.99,,2013-10-04 16:02:00,
2013-10-04 12:11:00,54.0,50.0,29.99,ESE,118,0.0,-999.0,87,-99.99,,,-99.99,,2013-10-04 16:11:00,
2013-10-04 12:21:00,54.0,50.0,29.99,ESE,118,0.0,-999.0,87,-99.99,,,-99.99,,2013-10-04 16:21:00,
2013-10-04 12:31:00,56.0,52.0,29.98,ESE,118,0.0,-999.0,85,-99.99,,,-99.99,,2013-10-04 16:31:00,
2013-10-04 12:51:00,55.0,50.0,29.99,ESE,118,0.0,-999.0,84,-99.99,,,-99.99,,2013-10-04 16:51:00,
2013-10-04 13:02:00,58.0,53.0,29.98,ESE,118,0.0,-999.0,82,-99.99,,,-99.99,,2013-10-04 17:02:00,
2013-10-04 13:22:00,59.0,52.0,29.98,East,87,0.0,-999.0,79,-99.99,,,-99.99,,2013-10-04 17:22:00,
2013-10-04 13:31:00,61.0,53.0,29.97,East,101,0.0,-999.0,75,-99.99,,,-99.99,,2013-10-04 17:31:00,
2013-10-04 14:04:00,62.0,52.0,29.96,ESE,114,0.0,-999.0,70,-99.99,,,-99.99,,2013-10-04 18:04:00,
2013-10-04 14:24:00,63.0,53.0,29.96,ESE,114,0.0,-999.0,71,-99.99,,,-99.99,,2013-10-04 18:24:00,
2013-10-04 14:32:00,64.0,52.0,29.94,ESE,105,0.0,-999.0,66,-99.99,,,-99.99,,2013-10-04 18:32:00,
2013-10-04 14:51:00,64.0,53.0,29.95,East,94,0.0,-999.0,67,-99.99,,,-99.99,,2013-10-04 18:51:00,
2013-10-04 14:56:00,66.0,54.0,29.94,ENE,64,0.0,-999.0,66,-99.99,,,-99.99,,2013-10-04 18:56:00,
2013-10-04 15:12:00,66.0,53.0,29.95,East,81,0.0,-999.0,63,-99.99,,,-99.99,,2013-10-04 19:12:00,
2013-10-04 15:22:00,66.0,53.0,29.93,ENE,78,0.0,-999.0,64,-99.99,,,-99.99,,2013-10-04 19:22:00,
2013-10-04 15:43:00,65.0,53.0,29.94,East,80,0.0,-999.0,64,-99.99,,,-99.99,,2013-10-04 19:43:00,
2013-10-04 15:53:00,66.0,54.0,29.94,East,80,0.0,-999.0,65,-99.99,,,-99.99,,2013-10-04 19:53:00,
2013-10-04 16:11:00,65.0,53.0,29.94,East,80,0.0,-999.0,65,-99.99,,,-99.99,,2013-10-04 20:11:00,
2013-10-04 16:22:00,65.0,55.0,29.93,ENE,78,0.0,-999.0,71,-99.99,,,-99.99,,2013-10-04 20:22:00,
2013-10-04 16:53:00,64.0,53.0,29.94,ESE,108,0.0,-999.0,67,-99.99,,,-99.99,,2013-10-04 20:53:00,
2013-10-04 17:01:00,64.0,53.0,29.94,ESE,108,0.0,-999.0,67,-99.99,,,-99.99,,2013-10-04 21:01:00,
2013-10-04 17:12:00,64.0,53.0,29.94,ESE,108,0.0,-999.0,67,-99.99,,,-99.99,,2013-10-04 21:12:00,
2013-10-04 17:22:00,64.0,54.0,29.93,ESE,108,0.0,-999.0,71,-99.99,,,-99.99,,2013-10-04 21:22:00,
2013-10-04 17:43:00,64.0,55.0,29.94,ESE,108,0.0,-999.0,72,-99.99,,,-99.99,,2013-10-04 21:43:00,
2013-10-04 17:54:00,63.0,55.0,29.93,ESE,108,0.0,-999.0,75,-99.99,,,-99.99,,2013-10-04 21:54:00,
2013-10-04 18:12:00,62.0,54.0,29.95,ESE,108,0.0,-999.0,76,-99.99,,,-99.99,,2013-10-04 22:12:00,
2013-10-04 18:23:00,61.0,54.0,29.94,ESE,108,0.0,-999.0,77,-99.99,,,-99.99,,2013-10-04 22:23:00,
2013-10-04 18:43:00,61.0,53.0,29.96,ESE,108,0.0,-999.0,75,-99.99,,,-99.99,,2013-10-04 22:43:00,
2013-10-04 18:53:00,61.0,53.0,29.94,South,187,0.0,-999.0,75,-99.99,,,-99.99,,2013-10-04 22:53:00,
2013-10-04 19:12:00,59.0,53.0,29.96,South,187,0.0,-999.0,80,-99.99,,,-99.99,,2013-10-04 23:12:00,
2013-10-04 19:22:00,58.0,52.0,29.95,South,170,0.0,-999.0,79,-99.99,,,-99.99,,2013-10-04 23:22:00,
2013-10-04 19:42:00,57.0,51.0,29.96,South,171,0.0,-999.0,80,-99.99,,,-99.99,,2013-10-04 23:42:00,
2013-10-04 19:53:00,57.0,51.0,29.96,South,169,0.0,-999.0,79,-99.99,,,-99.99,,2013-10-04 23:53:00,
2013-10-04 20:02:00,57.0,51.0,29.96,South,169,0.0,-999.0,79,-99.99,,,-99.99,,2013-10-05 00:02:00,
2013-10-04 20:12:00,57.0,51.0,29.96,South,169,0.0,-999.0,79,-99.99,,,-99.99,,2013-10-05 00:12:00,
2013-10-04 20:23:00,57.0,51.0,29.96,SSE,168,0.0,-999.0,80,-99.99,,,-99.99,,2013-10-05 00:23:00,
2013-10-04 20:42:00,56.0,50.0,29.97,SSE,168,0.0,-999.0,81,-99.99,,,-99.99,,2013-10-05 00:42:00,
2013-10-04 20:53:00,55.0,51.0,29.96,SSE,168,0.0,-999.0,85,-99.99,,,-99.99,,2013-10-05 00:53:00,
2013-10-04 21:11:00,55.0,51.0,29.98,SSE,168,0.0,-999.0,85,-99.99,,,-99.99,,2013-10-05 01:11:00,
2013-10-04 21:22:00,55.0,50.0,29.97,SSE,168,0.0,-999.0,84,-99.99,,,-99.99,,2013-10-05 01:22:00,
2013-10-04 21:43:00,55.0,50.0,29.98,SSE,168,0.0,-999.0,84,-99.99,,,-99.99,,2013-10-05 01:43:00,
2013-10-04 21:52:00,55.0,51.0,29.98,SSE,168,0.0,-999.0,85,-99.99,,,-99.99,,2013-10-05 01:52:00,
2013-10-04 22:11:00,55.0,51.0,29.98,SSE,168,0.0,-999.0,86,-99.99,,,-99.99,,2013-10-05 02:11:00,
2013-10-04 22:22:00,56.0,51.0,29.98,SSE,168,0.0,-999.0,84,-99.99,,,-99.99,,2013-10-05 02:22:00,
2013-10-04 22:42:00,55.0,51.0,29.99,SSE,168,0.0,-999.0,86,-99.99,,,-99.99,,2013-10-05 02:42:00,
2013-10-04 22:52:00,55.0,51.0,29.99,SSE,168,0.0,-999.0,86,-99.99,,,-99.99,,2013-10-05 02:52:00,
2013-10-04 23:03:00,55.0,51.0,29.99,SSE,168,0.0,-999.0,86,-99.99,,,-99.99,,2013-10-05 03:03:00,
2013-10-04 23:12:00,55.0,51.0,29.99,SSE,168,0.0,-999.0,86,-99.99,,,-99.99,,2013-10-05 03:12:00,
2013-10-04 23:23:00,55.0,51.0,29.99,SSE,168,0.0,-999.0,86,-99.99,,,-99.99,,2013-10-05 03:23:00,
2013-10-04 23:45:00,54.0,50.0,30.00,SSE,168,0.0,-999.0,87,-99.99,,,-99.99,,2013-10-05 03:45:00,
2013-10-04 23:55:00,55.0,52.0,29.98,SSE,168,0.0,-999.0,88,-99.99,,,-99.99,,2013-10-05 03:55:00,